Regional Weather Roundup
Issued by NWS

Home | Current Version | Previous Version | Graphics & Text | Print | Product List | Glossary On
Versions: 1 2 3 4 5 6 7 8 9 10 11 12 13 14 15 16 17 18 19 20 21 22 23 24 25 26 27
000
ASUS45 KTFX 240310
RWRMT
MONTANA REGIONAL WEATHER ROUNDUP
NATIONAL WEATHER SERVICE GREAT FALLS MT
800 PM MST FRI FEB 23 2018

NOTE: "FAIR" INDICATES FEW OR NO CLOUDS BELOW 12000 FEET WITH NO
SIGNIFICANT WEATHER AND/OR OBSTRUCTIONS TO VISIBILITY.

MTZ001>007-043-240400-
WEST OF THE DIVIDE

CITY           SKY/WX    TMP DP  RH WIND       PRES   REMARKS
KALISPELL      CLOUDY    20  12  71 SW9       30.06F WCI   9
MISSOULA       CLOUDY    21  10  62 NW8       30.09F WCI  11
BUTTE          FAIR       9  -1  64 N3        29.92S
MULLAN PASS    LGT SNOW   6   3  87 VRB6      29.90F FOG     WCI  -4
ANACONDA         N/A     18   0  45 MISG      29.96S
DEER LODGE       N/A      7   0  72 W6        29.99S WCI  -3
HAMILTON         N/A     21   7  53 MISG      30.07F
RONAN            N/A     19  16  86 SE8       30.11F FOG     WCI   9
$$

MTZ008-052>055-240400-
SOUTHWEST MONTANA

CITY           SKY/WX    TMP DP  RH WIND       PRES   REMARKS
BOZEMAN        CLOUDY     3  -2  79 NE3       29.94S
DILLON         CLOUDY     7   3  84 S13       29.95S WCI  -9
ENNIS          CLOUDY    18   1  49 SE14      29.97S WCI   4
W YELLOWSTONE  LGT SNOW  12   9  85 SW13G21   29.90S WCI  -3
THREE FORKS      N/A      9   3  76 CALM      29.94S
$$

MTZ009-010-012-014-046-048-049-054-240400-
EAST SLOPES AND CENTRAL MONTANA

CITY           SKY/WX    TMP DP  RH WIND       PRES   REMARKS
CUT BANK       FAIR      16   9  74 W36G44    29.71F HAZE    WCI  -6
GREAT FALLS    FAIR      13   3  64 SW17      29.82F WCI  -4
MALMSTROM AFB  FAIR      16   8  68 SW22      29.85F WCI  -1
HELENA         FAIR      20   5  52 SW7G17    29.96S WCI  11
AUGUSTA        LGT SNOW  14   7  75 W30G44    29.77F WCI  -7
BOWMANS CRNR   FAIR       9  -1  65 W13       29.80F WCI  -7
CHOTEAU          N/A     19   7  58 SW20G28   29.76F WCI   4
FAIRFIELD      FAIR      15   6  68 SW25      29.78F WCI  -4
POWER          FAIR      14   6  70 SW25      29.78F WCI  -5
RAYNESFORD     FAIR      16   4  60 SW10      29.83S WCI   3
ULM            FAIR      14   5  66 SW13      29.85S WCI   0
WHITE SULPHUR    N/A     10   3  72 S13       29.85S WCI  -5
$$

MTZ011-013-016-021-045-047-050-051-240400-
NORTH CENTRAL MONTANA

CITY           SKY/WX    TMP DP  RH WIND       PRES   REMARKS
HAVRE          FAIR      14   6  70 SW23      29.82F WCI  -5
LEWISTOWN      FAIR      15   6  67 SW20      29.81S WCI  -2
N BAR RANCH    FAIR      19   1  45 SW8       29.81F WCI   9
CHINOOK          N/A     -2  -6  84 E7        29.85F WCI -16
GEYSER         FAIR      16   5  62 W18       29.79F WCI   0
STANFORD       FAIR      11   2  67 W15       29.79F WCI  -5
WINIFRED       FAIR      14   4  65 SW12      29.81F WCI   0
$$

MTZ017>020-022>027-061-062-240400-
NORTHEAST MONTANA

CITY           SKY/WX    TMP DP  RH WIND       PRES   REMARKS
GLASGOW        FAIR      -3  -9  75 SE14      29.91F WCI -22
GLENDIVE       FAIR       3  -3  76 S10       29.99F WCI -12
JORDAN           N/A      7  -2  66 W3        29.90F
MALTA          CLEAR     -4  -9  77 CALM      29.88F
SIDNEY         FAIR      -2  -8  76 S8        30.03S WCI -17
WOLF POINT     FAIR      -7 -13  75 CALM      29.98F
PLENTYWOOD       N/A      1  -4  78 SE9       29.94F WCI -14
POPLAR           N/A      3  -4  72 SE6       29.98F WCI  -8
$$

MTZ028>42-056>058-240400-
SOUTHCENTRAL AND SOUTHEAST MONTANA

CITY           SKY/WX    TMP DP  RH WIND       PRES   REMARKS
BAKER          FAIR       9  -1  64 SE13G21   30.00F WCI  -7
BILLINGS       FAIR      17   6  62 SW21      29.89F WCI   0
LIVINGSTON     FAIR      17   6  62 W14       29.87S WCI   3
MILES CITY     FAIR       2  -3  80 SE14      29.98F WCI -16
BIG TIMBER     CLEAR     19   5  53 SW25      29.86F WCI   2
FORSYTH          N/A      3   0  85 CALM      29.94F
HARLOWTON      FAIR      16   4  58 W12       29.84S WCI   3
LAUREL           N/A     14   5  67 SW15      29.91F WCI  -1
$$

REGIONAL REPORTS...DAKOTAS

CITY           SKY/WX    TMP DP  RH WIND       PRES   REMARKS
WILLISTON      FAIR       4  -2  76 S6        30.02F WCI  -7
MINOT          FAIR       7   1  76 SE7       30.06F WCI  -5
DICKINSON      FAIR       5  -4  66 S14       30.01F WCI -12
BEACH          FAIR       3  -2  78 S14       30.02F WCI -15
CROSBY         FAIR       5   0  78 S17       29.97F WCI -14
TIOGA          FAIR       1   1 100 S8        29.99F WCI -12
WATFORD CITY   FAIR       1  -2  85 CALM      30.02S
BISMARCK       FAIR      11   6  81 S9        30.18F WCI  -2
GRAND FORKS    FAIR       3  -1  83 S8        30.23S WCI -10
FARGO          FAIR       5   2  87 S9        30.27F WCI  -9
BUFFALO SD       N/A      4  -3  73 SE6       29.95F WCI  -7
RAPID CITY     FAIR      11   1  64 SE9       30.04F WCI  -2
$$

REGIONAL REPORTS...WYOMING/IDAHO/WASHINGTON

CITY           SKY/WX    TMP DP  RH WIND       PRES   REMARKS
GILLETTE       FAIR      15   6  67 S23       29.91F WCI  -3
SHERIDAN       FAIR       1  -6  72 CALM      29.91F
BUFFALO WY     FAIR      16   8  71 S5        29.87F
CODY           FAIR      11   4  73 W3        29.89F
YELLOWSTONE LA   N/A     -3  -7  82 CALM      29.89S
IDAHO FALLS    MOCLDY    17  12  80 S17G25    30.09S WCI   1
SALMON         FAIR      20  11  68 S5        30.07F
BOISE          MOCLDY    24  13  62 SE6       30.25R WCI  17
SPOKANE        LGT SNOW  21  19  92 S8        30.15F VSB 1   WCI  11
$$

REGIONAL REPORTS...ALBERTA

CITY           SKY/WX    TMP DP  RH WIND       PRES   REMARKS
CALGARY        CLOUDY    27   3  36 W23G37    29.58F WCI  12
EDMONTON       CLOUDY    28  21  74 SW9       29.51F WCI  20
FORT MCMURRAY  CLOUDY    25  18  74 SW6       29.43S WCI  18
HIGH LEVEL     LGT SNOW  21  18  86 N9        29.52R WCI  11
LETHBRIDGE     MOCLDY    19  12  73 W39G49    29.67S BLWGSNOWWCI  -2
LLOYDMINSTER   MOCLDY    14   7  73 SW15      29.52F WCI  -1
MEDICINE HAT   CLEAR     18  12  79 SW15G22   29.68S WCI   3
MILK RIVER       N/A     16  10  79 SW21        N/A  WCI  -2
ONEFOUR          N/A     -4  -6  92 E7          N/A  WCI -18
PEACE RIVER    CLOUDY    30  18  59 W10       29.44S WCI  21
PINCHER CREEK  LGT SNOW  18   9  68 W39G53    29.71S WCI  -4
WATERTON GATE    N/A     18   5  57 SW32G46     N/A  WCI  -3
$$

REGIONAL REPORTS...SASKATCHEWAN

CITY           SKY/WX    TMP DP  RH WIND       PRES   REMARKS
CORONACH         N/A      1  -4  78 S8          N/A  WCI -12
CYPRESS HILLS    N/A      3  -2  78 S8          N/A  WCI -10
ESTEVAN        CLEAR      3   0  85 S10       29.97F WCI -12
MOOSE JAW        N/A      9   0  66 S22G28      N/A  WCI -11
PRINCE ALBERT  MOCLDY    14   7  73 S10       29.70F WCI   1
REGINA         CLEAR      7   1  78 S15       29.85F WCI -11
ROCKGLEN         N/A     -2  -8  78 S14         N/A  WCI -21
SASKATOON      MOCLDY    12   5  73 S14G20    29.70F WCI  -3
VAL MARIE        N/A    -11 -17  77 SW3         N/A
$$




USA.gov is the U.S. government's official web portal to all federal, state and local government web resources and services.